Medford, OR

6:54 AM PDT on October 19, 2017 (GMT -0700)
Rogue Valley International-Medford

Weather History for KMFR - February, 2013

Change the Weather History Date:

Saturday, February 2, 2013

  Actual Average Record
Temperature  
Mean Temperature 38 °F 42 °F  
Max Temperature 43 °F 51 °F 68 °F (1935)
Min Temperature 32 °F 33 °F 7 °F (1950)
Degree Days  
Heating Degree Days 27 23  
Month to date heating degree days 53 46  
Since 1 July heating degree days 2472 2578  
Cooling Degree Days 0 0  
Month to date cooling degree days 0 0  
Year to date cooling degree days 0 0  
Moisture  
Dew Point 34 °F    
Average Humidity 88    
Maximum Humidity 100    
Minimum Humidity 76    
Precipitation  
Precipitation 0.00 in 0.06 in 0.67 in (2015)
Month to date precipitation 0.00 0.13  
Year to date precipitation 0.96 2.56  
Snow  
Snow 0.00 in 0.00 in - ()
Month to date snowfall 0.0 0.0  
Since 1 July snowfall 1.7 3.0  
Snow Depth 0.00 in    
Sea Level Pressure  
Sea Level Pressure 30.32 in    
Wind  
Wind Speed 0 mph (North)    
Max Wind Speed 5 mph    
Max Gust Speed 6 mph    
Visibility 2 miles    
Events Fog    
T = Trace of Precipitation, MM = Missing Value Source: NWS Daily Summary

Daily Weather History Graph

Daily Weather History Graph

Search for Another Location

Airport or City:

Trip Planner

Search our weather history database for the weather conditions in past years. The results will help you decide how hot, cold, wet, or windy it might be!

Date:

Astronomy

Feb. 02, 2013 Rise Set
Actual Time 7:23 AM PST 5:27 PM PST
Civil Twilight 6:53 AM PST 5:57 PM PST
Nautical Twilight 6:20 AM PST 6:30 PM PST
Astronomical Twilight 5:47 AM PST 7:03 PM PST
Moon No Moon Rise 10:28 AM PST (2/2)
Length of Visible Light 11h 03m
Length of Day
10h 03m
Waning Gibbous, 58% of the Moon is Illuminated
Feb 2
Waning Gibbous
Feb 3
Last Quarter
Feb 9
New
Feb 17
First Quarter
Feb 25
Full

Hourly Weather History & Observations

Time (PST) Temp. Windchill Dew Point Humidity Pressure Visibility Wind Dir Wind Speed Gust Speed Precip Events Conditions
12:02 AM 32.0 °F - 30.2 °F 93% 30.30 in 0.5 mi Calm Calm - N/A Fog Fog
12:19 AM 33.8 °F - 32.0 °F 93% 30.30 in 0.2 mi Calm Calm - N/A Fog Fog
12:32 AM 33.8 °F - 32.0 °F 93% 30.30 in 0.2 mi Calm Calm - N/A Fog Fog
12:53 AM 34.0 °F - 33.1 °F 96% 30.32 in 0.2 mi Calm Calm - N/A Fog Fog
1:53 AM 35.1 °F - 34.0 °F 96% 30.33 in 0.2 mi Calm Calm - N/A Fog Fog
2:53 AM 35.1 °F - 34.0 °F 96% 30.34 in 0.2 mi Calm Calm - N/A Fog Fog
3:53 AM 35.1 °F - 34.0 °F 96% 30.33 in 0.2 mi Calm Calm - N/A Fog Fog
4:03 AM 33.8 °F - 33.8 °F 100% 30.31 in 0.5 mi Calm Calm - N/A Fog Fog
4:16 AM 33.8 °F - 33.8 °F 100% 30.31 in 1.0 mi Calm Calm - N/A   Mist
4:24 AM 33.8 °F - 33.8 °F 100% 30.31 in 0.8 mi Calm Calm - N/A   Mist
4:53 AM 34.0 °F - 34.0 °F 100% 30.33 in 0.5 mi Calm Calm - N/A Fog Fog
5:53 AM 34.0 °F 31.0 °F 33.1 °F 96% 30.33 in 0.5 mi West 3.5 mph - N/A Fog Fog
6:53 AM 34.0 °F - 33.1 °F 96% 30.34 in 0.8 mi Calm Calm - N/A   Mist
7:53 AM 34.0 °F - 33.1 °F 96% 30.35 in 0.2 mi Calm Calm - N/A Fog Fog
8:53 AM 33.1 °F - 33.1 °F 100% 30.37 in 0.2 mi Calm Calm - N/A Fog Fog
9:53 AM 34.0 °F - 33.1 °F 96% 30.38 in 0.2 mi Calm Calm - N/A Fog Fog
10:53 AM 34.0 °F - 34.0 °F 100% 30.39 in 0.5 mi Calm Calm - N/A Fog Fog
11:53 AM 35.1 °F - 34.0 °F 96% 30.37 in 1.5 mi Calm Calm - N/A   Overcast
12:53 PM 36.0 °F - 34.0 °F 93% 30.36 in 3.0 mi Calm Calm - N/A   Overcast
1:53 PM 39.0 °F - 35.1 °F 86% 30.34 in 5.0 mi Calm Calm - N/A   Overcast
2:53 PM 39.0 °F - 35.1 °F 86% 30.32 in 8.0 mi Calm Calm - N/A   Overcast
3:18 PM 41.0 °F - 35.6 °F 81% 30.29 in 7.0 mi Calm Calm - N/A   Scattered Clouds
3:53 PM 42.1 °F 40.2 °F 36.0 °F 79% 30.31 in 8.0 mi North 3.5 mph - N/A   Scattered Clouds
4:53 PM 42.1 °F - 36.0 °F 79% 30.30 in 10.0 mi Calm Calm - N/A   Clear
5:53 PM 39.9 °F - 35.1 °F 83% 30.30 in 10.0 mi Calm Calm - N/A   Clear
6:53 PM 37.0 °F - 34.0 °F 89% 30.31 in 7.0 mi Calm Calm - N/A   Clear
7:27 PM 35.6 °F - 33.8 °F 93% 30.28 in 1.8 mi Calm Calm - N/A   Clear
7:37 PM 33.8 °F - 33.8 °F 100% 30.28 in 2.0 mi Calm Calm - N/A   Partly Cloudy
7:40 PM 33.8 °F - 32.0 °F 93% 30.28 in 1.0 mi Calm Calm - N/A   Mist
7:53 PM 34.0 °F - 32.0 °F 92% 30.31 in 1.5 mi Calm Calm - N/A   Mostly Cloudy
7:57 PM 33.8 °F - 32.0 °F 93% 30.28 in 4.0 mi Calm Calm - N/A   Mostly Cloudy
8:24 PM 35.6 °F - 33.8 °F 93% 30.29 in 7.0 mi Calm Calm - N/A   Overcast
8:28 PM 33.8 °F - 33.8 °F 100% 30.29 in 1.2 mi Calm Calm - N/A   Overcast
8:32 PM 33.8 °F - 33.8 °F 100% 30.29 in 0.2 mi Calm Calm - N/A Fog Fog
8:48 PM 35.6 °F - 33.8 °F 93% 30.29 in 0.2 mi Calm Calm - N/A Fog Fog
8:53 PM 35.1 °F - 34.0 °F 96% 30.32 in 0.2 mi Calm Calm - N/A Fog Fog
9:06 PM 35.6 °F - 35.6 °F 100% 30.30 in 0.2 mi Calm Calm - N/A Fog Fog
9:53 PM 33.1 °F - 33.1 °F 100% 30.34 in 0.2 mi Calm Calm - N/A Fog Fog
10:11 PM 32.0 °F - 30.2 °F 93% 30.31 in 0.2 mi Calm Calm - N/A Fog Fog
10:53 PM 33.1 °F - 32.0 °F 96% 30.34 in 0.2 mi Calm Calm - N/A Fog Fog
11:23 PM 33.8 °F 30.8 °F 33.8 °F 100% 30.31 in 0.2 mi North 3.5 mph - N/A Fog Fog
11:53 PM 32.0 °F 28.7 °F 32.0 °F 100% 30.35 in 0.2 mi East 3.5 mph - N/A Fog Fog